Regional Weather Roundup
Issued by NWS Boston, MA

Home | Current Version | Previous Version | Text Only | Print | Product List | Glossary On
Versions: 1 2 3 4 5 6 7 8 9 10 11 12 13 14 15 16 17 18 19 20 21 22 23 24 25 26 27 28 29 30 31 32 33 34 35 36 37 38 39 40 41 42 43 44 45 46 47 48 49 50
000
ASUS41 KBOX 242110
RWRBOX

REGIONAL WEATHER ROUNDUP
NATIONAL WEATHER SERVICE TAUNTON MA
500 PM EDT WED AUG 24 2016

NOTE:  "FAIR" INDICATES FEW OR NO CLOUDS BELOW 12,000 FEET WITH NO
SIGNIFICANT WEATHER AND/OR OBSTRUCTIONS TO VISIBILITY.

MAZALL-242200-
EASTERN MASSACHUSETTS

CITY           SKY/WX    TMP DP  RH WIND       PRES   REMARKS
BOSTON         MOSUNNY   78  64  61 SE12      30.14F
BEVERLY        SUNNY     81  62  52 S8        30.14S
LAWRENCE       SUNNY     88  61  40 SW7       30.16S
BEDFORD        MOSUNNY   86  55  34 SW8       30.13F
BLUE HILL        N/A     85  56  37 SW9       30.17S
NORWOOD        SUNNY     87  59  38 SW7G16    30.14F
MARSHFIELD     SUNNY     88  61  40 SW9       30.14S
PLYMOUTH       SUNNY     83  57  41 S13       30.17F
TAUNTON        SUNNY     84  57  39 SW10      30.16F
NEW BEDFORD    SUNNY     82  62  50 S12       30.17F
$$

MAZALL-242200-
CAPE COD AND THE ISLANDS

CITY           SKY/WX    TMP DP  RH WIND       PRES   REMARKS
FALMOUTH       SUNNY     81  57  44 SW17      30.20S
HYANNIS        SUNNY     80  61  52 SW14G22   30.17F
CHATHAM        SUNNY     77  65  66 SW8G20    30.20F
PROVINCETOWN   SUNNY     80  63  55 SW10      30.17F
NANTUCKET      SUNNY     75  67  76 SW12      30.21F
MARTHAS VNYRD  SUNNY     77  65  66 SW14      30.20F
$$

MAZALL-242200-
CENTRAL AND WESTERN MASSACHUSETTS

CITY           SKY/WX    TMP DP  RH WIND       PRES   REMARKS
WORCESTER      SUNNY     80  56  43 SW9       30.20F
FITCHBURG      SUNNY     86  58  38 SW7       30.17F
ORANGE         SUNNY     83  59  44 S9        30.16F
SPRINGFIELD    SUNNY     86  58  38 SW13      30.14F
WESTFIELD      SUNNY     85  59  41 S13       30.15F
NORTH ADAMS    SUNNY     82  61  48 SW7       30.16F
PITTSFIELD     SUNNY     80  57  45 SW9       30.18F
$$

RIZALL-242200-
RHODE ISLAND

CITY           SKY/WX    TMP DP  RH WIND       PRES   REMARKS
PROVIDENCE     MOSUNNY   84  58  40 S14       30.17S
NEWPORT        SUNNY     77  64  64 S12G17    30.19S
BLOCK ISLAND   SUNNY     77  67  71 SW12      30.21F
SMITHFIELD     SUNNY     83  60  45 VRB6      30.18F
WESTERLY       SUNNY     80  61  52 S12       30.20F
$$

CTZALL-242200-
CONNECTICUT

CITY           SKY/WX    TMP DP  RH WIND       PRES   REMARKS
BRADLEY INTL   MOSUNNY   86  57  37 S9        30.16F
HARTFORD       SUNNY     87  61  41 S10       30.15F
BRIDGEPORT     SUNNY     84  59  42 S9        30.17F
DANBURY        SUNNY     83  58  42 SW7       30.19F
GROTON         SUNNY     78  66  66 S8        30.19F
NEW HAVEN      SUNNY     82  61  48 S8        30.18F
CHESTER        FAIR      82  57  42 S9        30.20F
MERIDEN        SUNNY     86  58  38 S8        30.17F
WILLIMANTIC    SUNNY     84  60  44 S13G20    30.18F
OXFORD         MOSUNNY   82  61  47 S7        30.23F
$$

MEZ002-015-021-024-NHZ003-005-008-011-012-014-VTZ005-008-242200-
NORTHERN NEW ENGLAND

CITY           SKY/WX    TMP DP  RH WIND       PRES   REMARKS
PORTLAND ME    CLOUDY    79  59  50 S13       30.13F
BANGOR ME      CLOUDY    81  63  54 S8        30.10F
CONCORD NH     SUNNY     88  56  33 SW8       30.14S
MANCHESTER NH  PTSUNNY   87  56  34 SW8       30.12S
NASHUA NH      SUNNY     86  62  44 VRB6      30.14F
PORTSMOUTH NH  PTSUNNY   84  61  45 SE10      30.11F
JAFFREY NH     SUNNY     83  56  39 VRB6      30.19F
KEENE NH       SUNNY     84  62  47 S9        30.15F
BURLINGTON VT  MOSUNNY   85  60  42 S14       30.09F
MT. WASHINGTON PTSUNNY   57  48  72 W13         N/A
$$

NYZ052-076-242200-
EASTERN NEW YORK

CITY           SKY/WX    TMP DP  RH WIND       PRES   REMARKS
ALBANY         PTSUNNY   84  61  45 SE8       30.14F
NEW YORK CITY  MOSUNNY   85  61  44 S17G23    30.17F
$$

ANZALL-242200-
MARINE OBSERVATIONS

STATION/POSITION TIME  TEMP    WIND        PRES    VSBY  WAVE
                       AIR SEA DIR/SP/G                  HT/PER
                 (UTC) (F)     (DEG/KT/KT) (MB)    (MI)  (FT/S)
BOSTON BUOY      2050   71 68  110/ 10/ 12 1020.3F         1/11
BUZZARDS BAY     2000   72     210/ 15/ 16 1023.0F
NANTUCKET SOUND  2050   74 75  230/ 14/ 16 1022.3F         1/ 3
MASS BAY-STELLWA 2004   72 68  150/ 12/ 14 1020.5F  1 7/8  1/ 8
ISLE OF SHOALS   2100   72     160/ 21/ 22 1020.2S
S OF BLOCK IS    2025      75                N/A           2/12
$$

......................KEY.........................
  SKY/WX - SKY CONDITION/PRESENT WEATHER
  TMP    - TEMPERATURE IN FAHRENHEIT
  DWPT   - DEWPOINT IN FAHRENHEIT
  RH     - RELATIVE HUMIDITY IN PERCENT
  WIND   - DIRECTION AND SPEED IN MPH
  PRES   - MEAN SEA LEVEL PRESSURE IN INCHES OF HG
  WCI    - WIND CHILL INDEX
  VSB    - VISIBILITY IN MILES
  HX     - HEAT INDEX
  TC     - TEMPERATURE IN CELSIUS
  VRB    - VARIABLE WIND DIRECTION
  N/A    - NOT AVAILABLE



USA.gov is the U.S. government's official web portal to all federal, state and local government web resources and services.